Location: Earls Croome
(52.0667°N, 2.2000°W)
Time: 12:47:39
(UTC+00:00)

Cosmos 1447 Rocket - Pass Details

Date: 17 November 2019
Orbit: 955 x 995 km, 82.9° (Epoch: 12 December)

Event Time Altitude Azimuth Distance (km) Brightness Sun altitude
Rises 04:39:24 0° 348° (NNW) 3,726 7.5 -26.1°
Reaches altitude 10° 04:41:56 10° 347° (NNW) 2,774 6.8 -25.8°
Maximum altitude 04:48:17 72° 265° (W) 1,049 4.4 -24.8°
Drops below altitude 10° 04:54:34 10° 182° (S) 2,750 6.8 -23.8°
Sets 04:57:05 0° 180° (S) 3,691 7.5 -23.4°
